1500753600.07,38852,23.69,74478.0,7.73,-14.79,-13.43,0,*74
1500753601.29,38853,23.69,74476.8,7.71,-14.79,-13.55,0,*70
1500753602.47,38854,23.69,74476.0,7.71,-14.69,-13.43,0,*71
1500753603.66,38855,23.69,74480.0,7.71,-14.69,-13.43,0,*70
1500753604.88,38856,23.69,74476.5,7.71,-14.79,-13.51,0,*71
1500753606.06,38857,23.69,74476.3,7.71,-14.69,-13.51,0,*71
1500753607.25,38858,23.69,74480.0,7.67,-14.69,-13.47,0,*7E
1500753608.47,38859,23.69,74482.5,7.71,-14.55,-13.43,0,*73
1500753609.65,38860,23.69,74478.3,7.67,-14.69,-13.47,0,*75
1500753610.83,38861,23.69,74478.5,7.71,-14.69,-13.47,0,*73
1500753612.02,38862,23.69,74476.3,7.71,-14.65,-13.43,0,*78
1500753613.24,38863,23.69,74478.8,7.71,-14.55,-13.43,0,*7A
1500753614.45,38864,23.69,74482.0,7.71,-14.65,-13.37,0,*7D
1500753615.7,38865,23.69,74478.8,7.71,-14.55,-13.37,0,*7F
1500753616.92,38866,23.69,74482.0,7.67,-14.55,-13.43,0,*78
1500753618.17,38867,23.69,74480.3,7.67,-14.55,-13.33,0,*7E
1500753619.39,38868,23.69,74480.0,7.71,-14.65,-13.37,0,*71
1500753620.61,38869,23.69,74480.0,7.71,-14.61,-13.33,0,*70
1500753621.81,38870,23.69,74480.8,7.71,-14.37,-13.11,0,*7B
1500753623.03,38871,23.69,74480.3,7.71,-14.37,-13.29,0,*71
1500753624.26,38872,23.69,74480.5,7.71,-14.51,-13.23,0,*78
1500753625.46,38873,23.69,74480.3,7.71,-14.37,-13.23,0,*79
1500753626.66,38874,23.69,74486.8,7.71,-14.37,-13.19,0,*77
1500753627.86,38875,23.69,74484.3,7.71,-14.29,-13.11,0,*71
1500753629.08,38876,23.69,74480.8,7.71,-14.37,-13.29,0,*76
1500753630.33,38877,23.69,74480.8,7.71,-14.43,-13.29,0,*74
1500753631.53,38878,23.69,74482.8,7.71,-14.29,-13.11,0,*7C
1500753632.73,38879,23.69,74480.8,7.67,-14.23,-13.11,0,*70
1500753633.93,38880,23.69,74478.5,7.67,-14.11,-12.89,0,*77
1500753635.13,38881,23.69,74480.8,7.71,-14.23,-13.07,0,*77
1500753636.37,38882,23.69,74482.5,7.73,-14.23,-13.19,0,*79
1500753637.57,38883,23.69,74480.3,7.71,-14.23,-13.11,0,*72
1500753638.77,38884,23.69,74480.3,7.71,-14.23,-13.07,0,*72
1500753640.0,38885,23.69,74482.0,7.73,-14.19,-13.11,0,*7F
1500753641.22,38886,23.69,74478.5,7.73,-14.23,-13.11,0,*75
1500753642.47,38887,23.69,74478.5,7.73,-14.37,-13.29,0,*7A
1500753643.71,38888,23.69,74476.3,7.73,-14.37,-13.29,0,*75
1500753644.92,38889,23.69,74476.5,7.75,-14.23,-13.19,0,*74
1500753646.15,38890,23.69,74474.5,7.73,-14.23,-13.11,0,*72
1500753647.37,38891,23.69,74472.8,7.73,-14.29,-13.19,0,*71
1500753648.6,38892,23.69,74478.0,7.73,-14.37,-13.19,0,*7D
1500753649.83,38893,23.69,74482.0,7.73,-14.29,-13.23,0,*7A
1500753651.03,38894,23.69,74476.5,7.71,-14.29,-13.19,0,*76
1500753652.26,38895,23.69,74476.8,7.73,-14.29,-13.19,0,*75
1500753653.45,38896,23.69,74474.5,7.75,-14.29,-13.07,0,*7F
1500753654.65,38897,23.69,74476.0,7.75,-14.19,-13.07,0,*7D
1500753655.88,38898,23.69,74472.0,7.75,-14.05,-12.93,0,*73
1500753657.11,38899,23.69,74474.8,7.73,-14.11,-12.97,0,*75
1500753658.33,38900,23.69,74476.5,7.73,-14.11,-12.97,0,*74
1500753659.56,38901,23.69,74476.0,7.73,-14.11,-12.97,0,*75
1500753660.79,38902,23.69,74480.3,7.73,-14.19,-12.97,0,*7E
1500753661.99,38903,23.69,74478.3,7.75,-14.19,-13.07,0,*71
1500753663.21,38904,23.69,74478.8,7.75,-14.15,-13.01,0,*7C
1500753664.43,38905,23.69,74480.0,7.73,-14.19,-13.07,0,*71
1500753665.66,38906,23.69,74482.8,7.75,-14.15,-13.01,0,*7E
1500753666.88,38907,23.69,74476.5,7.73,-14.23,-13.07,0,*7A
1500753668.11,38908,23.69,74478.3,7.75,-14.05,-13.07,0,*77
1500753669.33,38909,23.69,74480.3,7.73,-14.19,-13.07,0,*7D
1500753670.58,38910,23.63,74476.3,7.73,-14.05,-13.07,0,*78
1500753671.81,38911,23.69,74482.3,7.73,-14.19,-12.97,0,*7C
1500753673.03,38912,23.69,74482.5,7.75,-14.15,-13.01,0,*7B
1500753674.26,38913,23.69,74484.3,7.75,-14.19,-13.01,0,*76
1500753675.49,38914,23.69,74482.8,7.75,-14.05,-12.93,0,*76
1500753676.73,38915,23.69,74480.8,7.75,-14.01,-13.01,0,*79
1500753678.01,38916,23.69,74482.0,7.77,-14.01,-13.01,0,*78
1500753679.29,38917,23.69,74480.8,7.77,-14.01,-13.01,0,*79
1500753680.53,38918,23.63,74478.8,7.77,-14.15,-12.93,0,*79
1500753681.79,38919,23.69,74486.0,7.77,-14.05,-12.93,0,*79
1500753683.02,38920,23.69,74486.8,7.75,-14.01,-12.89,0,*7E
1500753684.28,38921,23.69,74482.5,7.75,-14.01,-12.79,0,*70
1500753685.47,38922,23.63,74478.5,7.75,-13.93,-12.89,0,*70
1500753686.72,38923,23.69,74480.8,7.75,-13.87,-12.79,0,*7B
1500753687.94,38924,23.69,74482.3,7.75,-13.65,-12.65,0,*7D
1500753689.19,38925,23.69,74482.8,7.75,-13.97,-12.75,0,*70
1500753690.41,38926,23.69,74480.3,7.75,-13.93,-12.61,0,*72
1500753691.63,38927,23.69,74480.8,7.75,-13.93,-12.75,0,*76
1500753692.89,38928,23.69,74480.5,7.75,-14.01,-12.75,0,*75
1500753694.14,38929,23.69,74476.8,7.75,-13.87,-12.61,0,*78
1500753695.42,38930,23.69,74476.0,7.77,-13.87,-12.75,0,*77
1500753696.67,38931,23.69,74480.8,7.77,-13.93,-12.75,0,*73
1500753697.95,38932,23.69,74480.8,7.77,-13.87,-12.75,0,*75
1500753699.22,38933,23.69,74480.8,7.77,-13.87,-12.65,0,*75
1500753700.47,38934,23.69,74480.0,7.79,-13.87,-12.57,0,*7D
1500753701.71,38935,23.69,74482.3,7.77,-13.93,-12.65,0,*76
1500753702.97,38936,23.69,74480.8,7.77,-13.93,-12.79,0,*78
1500753704.25,38937,23.69,74480.5,7.77,-13.87,-12.79,0,*7C
1500753705.53,38938,23.69,74480.8,7.77,-14.01,-12.79,0,*7A
1500753706.79,38939,23.69,74478.5,7.79,-13.97,-12.75,0,*71
1500753708.07,38940,23.69,74478.5,7.77,-13.87,-12.83,0,*79
1500753709.32,38941,23.69,74476.3,7.77,-14.15,-13.01,0,*7F
1500753710.58,38942,23.69,74478.5,7.77,-14.01,-12.93,0,*73
1500753711.79,38943,23.69,74476.0,7.79,-14.11,-12.89,0,*76
1500753713.02,38944,23.69,74476.0,7.79,-13.97,-12.89,0,*78
1500753714.28,38945,23.69,74480.3,7.77,-14.05,-12.89,0,*7B
1500753715.54,38946,23.69,74476.8,7.77,-14.01,-12.93,0,*77
1500753716.79,38947,23.69,74478.3,7.79,-13.97,-12.83,0,*71
1500753718.05,38948,23.69,74478.3,7.77,-14.01,-12.93,0,*79
1500753719.31,38949,23.63,74478.3,7.77,-14.05,-12.93,0,*7C
1500753720.57,38950,23.69,74478.5,7.77,-14.05,-12.93,0,*74
1500753721.83,38951,23.63,74476.8,7.77,-14.01,-12.93,0,*71
1500753723.09,38952,23.69,74480.3,7.77,-14.05,-12.89,0,*7D
1500753724.37,38953,23.69,74480.8,7.77,-14.05,-13.01,0,*7D
1500753725.6,38954,23.69,74476.8,7.77,-14.19,-13.15,0,*72
1500753726.8,38955,23.63,74478.5,7.79,-14.11,-12.97,0,*7E
1500753728.06,38956,23.63,74476.0,7.77,-14.15,-13.01,0,*79
1500753729.29,38957,23.69,74478.3,7.77,-14.15,-12.93,0,*72
1500753730.57,38958,23.63,74476.5,7.77,-14.05,-13.01,0,*76
1500753731.83,38959,23.69,74478.8,7.77,-14.05,-12.93,0,*7D
1500753733.06,38960,23.63,74476.8,7.75,-14.15,-13.01,0,*7E
1500753734.28,38961,23.63,74478.3,7.75,-14.19,-13.01,0,*73
1500753735.49,38962,23.69,74480.8,7.75,-14.15,-12.93,0,*76
1500753736.71,38963,23.69,74480.8,7.75,-14.15,-13.01,0,*7D
1500753737.94,38964,23.63,74478.8,7.73,-14.19,-13.07,0,*76
1500753739.18,38965,23.69,74478.5,7.75,-14.05,-13.01,0,*7A
1500753740.41,38966,23.63,74478.3,7.75,-14.15,-13.01,0,*78
1500753741.61,38967,23.69,74482.0,7.75,-14.19,-13.07,0,*73
1500753742.84,38968,23.69,74478.5,7.75,-14.01,-12.93,0,*79
1500753744.07,38969,23.69,74476.8,7.75,-14.05,-12.93,0,*7C
1500753745.33,38970,23.69,74482.0,7.77,-14.05,-12.89,0,*7D
1500753746.58,38971,23.69,74480.0,7.73,-13.97,-12.97,0,*7B
1500753747.81,38972,23.69,74482.3,7.75,-14.01,-12.89,0,*79
1500753749.06,38973,23.69,74482.5,7.73,-13.93,-12.83,0,*78
1500753750.28,38974,23.69,74482.3,7.75,-13.93,-12.79,0,*7C
1500753751.53,38975,23.69,74480.8,7.73,-13.93,-12.71,0,*73
1500753752.77,38976,23.69,74480.5,7.73,-13.93,-12.79,0,*78
1500753754.05,38977,23.63,74478.3,7.73,-13.97,-12.79,0,*7D
1500753755.33,38978,23.69,74482.0,7.73,-13.97,-12.83,0,*77
1500753756.61,38979,23.63,74480.5,7.73,-13.97,-12.79,0,*73
1500753757.83,38980,23.63,74478.3,7.73,-13.93,-12.93,0,*75
1500753759.08,38981,23.69,74480.8,7.73,-13.93,-12.71,0,*78
1500753760.33,38982,23.69,74482.0,7.73,-13.93,-12.71,0,*7B
1500753761.58,38983,23.63,74480.5,7.75,-13.87,-12.75,0,*7D
1500753762.8,38984,23.69,74486.3,7.75,-13.93,-12.79,0,*73
1500753764.08,38985,23.69,74482.5,7.73,-13.97,-12.83,0,*75
1500753765.36,38986,23.69,74482.8,7.73,-13.97,-12.83,0,*76
1500753766.61,38987,23.69,74482.3,7.73,-13.93,-12.79,0,*76
1500753767.86,38988,23.63,74482.0,7.73,-13.93,-12.71,0,*71
1500753769.11,38989,23.69,74482.3,7.73,-14.05,-12.93,0,*74
1500753770.35,38990,23.69,74482.5,7.73,-13.93,-12.83,0,*75
1500753771.6,38991,23.63,74480.0,7.75,-13.83,-12.65,0,*7B
1500753772.85,38992,23.69,74482.5,7.73,-13.93,-12.79,0,*72
1500753774.13,38993,23.63,74482.0,7.73,-13.97,-12.79,0,*77
1500753775.41,38994,23.69,74482.8,7.73,-13.97,-12.83,0,*75
1500753776.63,38995,23.63,74482.5,7.71,-13.93,-12.79,0,*77
1500753777.85,38996,23.63,74480.3,7.71,-13.93,-12.79,0,*74
1500753779.08,38997,23.69,74484.3,7.71,-13.93,-12.79,0,*75
1500753780.33,38998,23.69,74480.8,7.67,-13.97,-12.83,0,*7C
1500753781.56,38999,23.63,74484.3,7.71,-13.93,-12.71,0,*73
1500753782.78,39000,23.63,74482.0,7.71,-13.93,-12.71,0,*7B
1500753784.03,39001,23.63,74482.8,7.71,-13.79,-12.57,0,*7A
1500753785.25,39002,23.63,74476.8,7.71,-13.69,-12.57,0,*78
1500753786.47,39003,23.63,74478.5,7.71,-13.69,-12.57,0,*79
1500753787.72,39004,23.69,74480.8,7.71,-13.79,-12.65,0,*7E
1500753788.94,39005,23.63,74476.8,7.71,-13.65,-12.53,0,*77
1500753790.19,39006,23.69,74480.3,7.71,-13.79,-12.57,0,*7D
1500753791.43,39007,23.63,74480.0,7.71,-13.79,-12.65,0,*7D
1500753792.67,39008,23.69,74482.0,7.71,-13.79,-12.65,0,*72
1500753793.92,39009,23.63,74480.0,7.71,-13.83,-12.65,0,*76
1500753795.16,39010,23.63,74480.8,7.71,-13.79,-12.65,0,*7B
1500753796.42,39011,23.69,74486.0,7.71,-13.83,-12.71,0,*7A
1500753797.67,39012,23.69,74486.0,7.71,-13.83,-12.65,0,*7C
1500753798.92,39013,23.63,74482.5,7.71,-13.83,-12.65,0,*7D
1500753800.14,39014,23.63,74480.0,7.67,-13.69,-12.61,0,*7D
1500753801.37,39015,23.69,74480.0,7.71,-13.55,-12.53,0,*75
1500753802.61,39016,23.69,74480.8,7.71,-13.79,-12.65,0,*7D
1500753803.86,39017,23.63,74478.3,7.71,-13.79,-12.53,0,*79
1500753805.06,39018,23.63,74480.3,7.71,-13.65,-12.43,0,*7A
1500753806.31,39019,23.63,74480.0,7.71,-13.79,-12.53,0,*77
1500753807.53,39020,23.69,74480.8,7.67,-13.73,-12.61,0,*71
1500753808.76,39021,23.69,74480.3,7.71,-13.55,-12.53,0,*72
1500753809.99,39022,23.69,74482.0,7.71,-13.51,-12.35,0,*75
1500753811.19,39023,23.63,74482.5,7.71,-13.43,-12.39,0,*7B
1500753812.39,39024,23.63,74482.3,7.71,-13.69,-12.39,0,*74
1500753813.59,39025,23.69,74480.8,7.71,-13.55,-12.39,0,*7A
1500753814.79,39026,23.63,74480.0,7.71,-13.55,-12.39,0,*79
1500753815.99,39027,23.63,74480.8,7.71,-13.55,-12.43,0,*75
1500753817.21,39028,23.63,74480.3,7.71,-13.65,-12.53,0,*78
1500753818.41,39029,23.69,74480.5,7.71,-13.69,-12.43,0,*74
1500753819.63,39030,23.63,74482.0,7.71,-13.69,-12.53,0,*7D
1500753820.86,39031,23.69,74486.0,7.71,-13.69,-12.57,0,*78
1500753822.08,39032,23.63,74480.3,7.71,-13.65,-12.53,0,*73
1500753823.28,39033,23.63,74482.8,7.71,-13.55,-12.43,0,*70
1500753824.48,39034,23.63,74480.0,7.67,-13.55,-12.39,0,*7D
1500753825.67,39035,23.63,74480.8,7.71,-13.65,-12.43,0,*75
1500753826.88,39036,23.63,74482.8,7.71,-13.51,-12.39,0,*7C
1500753828.08,39037,23.63,74480.5,7.71,-13.51,-12.43,0,*70
1500753829.31,39038,23.63,74482.0,7.71,-13.43,-12.35,0,*7D
1500753830.54,39039,23.69,74486.0,7.71,-13.43,-12.35,0,*7C
1500753831.76,39040,23.69,74484.5,7.71,-13.29,-12.21,0,*7B
1500753833.01,39041,23.63,74480.3,7.71,-13.29,-12.11,0,*79
1500753834.26,39042,23.63,74482.0,7.73,-13.29,-12.25,0,*7F
1500753835.48,39043,23.63,74480.8,7.73,-13.43,-12.25,0,*72
1500753836.73,39044,23.69,74484.8,7.73,-13.43,-12.35,0,*74
1500753837.98,39045,23.63,74484.3,7.73,-13.37,-12.39,0,*7A
1500753839.2,39046,23.63,74480.3,7.71,-13.43,-12.35,0,*74
1500753840.43,39047,23.69,74486.5,7.71,-13.43,-12.35,0,*75
1500753841.63,39048,23.63,74480.8,7.71,-13.51,-12.43,0,*78
1500753842.84,39049,23.63,74482.0,7.71,-13.51,-12.43,0,*79
1500753844.04,39050,23.63,74480.8,7.71,-13.55,-12.43,0,*75
1500753845.24,39051,23.63,74480.3,7.71,-13.51,-12.39,0,*7D
1500753846.46,39052,23.63,74480.5,7.73,-13.43,-12.39,0,*7F
1500753847.69,39053,23.63,74482.0,7.73,-13.51,-12.43,0,*70
1500753848.92,39054,23.69,74486.5,7.71,-13.55,-12.53,0,*70
1500753850.14,39055,23.63,74480.8,7.71,-13.23,-12.07,0,*71
1500753851.37,39056,23.63,74482.5,7.71,-13.19,-11.97,0,*71
1500753852.59,39057,23.63,74480.8,7.71,-13.29,-12.25,0,*79
1500753853.84,39058,23.63,74482.3,7.73,-13.37,-12.25,0,*7B
1500753855.09,39059,23.63,74482.0,7.73,-13.43,-12.35,0,*78
1500753856.36,39060,23.63,74480.0,7.73,-13.37,-12.35,0,*71
1500753857.61,39061,23.63,74482.3,7.73,-13.29,-12.21,0,*7A
1500753858.86,39062,23.63,74480.0,7.73,-13.29,-12.25,0,*7D
1500753860.11,39063,23.63,74482.5,7.73,-13.37,-12.39,0,*7E
1500753861.36,39064,23.63,74480.5,7.71,-13.37,-12.35,0,*77
1500753862.61,39065,23.63,74480.0,7.71,-13.37,-12.35,0,*76
1500753863.86,39066,23.63,74478.5,7.73,-13.29,-12.25,0,*79
1500753865.11,39067,23.63,74482.0,7.73,-13.23,-12.07,0,*72
1500753866.36,39068,23.63,74480.3,7.73,-13.19,-12.11,0,*73
1500753867.58,39069,23.63,74482.0,7.73,-13.23,-12.21,0,*78
1500753868.83,39070,23.63,74482.8,7.73,-13.37,-12.25,0,*71
1500753870.11,39071,23.63,74480.8,7.73,-13.37,-12.35,0,*71
1500753871.36,39072,23.63,74476.8,7.73,-13.43,-12.35,0,*71
1500753872.63,39073,23.69,74480.0,7.73,-13.37,-12.35,0,*73
1500753873.88,39074,23.63,74476.8,7.73,-13.43,-12.35,0,*77
1500753875.13,39075,23.63,74476.3,7.73,-13.29,-12.21,0,*7F
1500753876.38,39076,23.69,74480.0,7.73,-13.29,-12.25,0,*78
1500753877.62,39077,23.63,74480.3,7.73,-13.37,-12.25,0,*76
1500753878.87,39078,23.63,74480.0,7.73,-13.29,-12.25,0,*76
1500753880.12,39079,23.63,74476.5,7.73,-13.29,-12.25,0,*77
1500753881.36,39080,23.63,74476.8,7.73,-13.29,-12.25,0,*71
1500753882.61,39081,23.69,74484.5,7.73,-13.19,-12.11,0,*74
1500753883.84,39082,23.63,74476.5,7.73,-13.23,-12.21,0,*7D
1500753885.09,39083,23.63,74476.5,7.73,-13.19,-12.11,0,*76
1500753886.34,39084,23.63,74482.0,7.73,-13.19,-12.07,0,*76
1500753887.56,39085,23.63,74480.8,7.75,-13.15,-12.07,0,*7D
1500753888.78,39086,23.63,74476.3,7.73,-13.11,-12.03,0,*78
1500753889.97,39087,23.63,74480.0,7.75,-13.15,-12.03,0,*7B
1500753891.17,39088,23.63,74478.5,7.75,-13.15,-12.03,0,*74
1500753892.38,39089,23.63,74480.0,7.75,-13.15,-12.07,0,*71
1500753893.58,39090,23.63,74474.3,7.75,-13.07,-12.03,0,*7E
1500753894.78,39091,23.63,74474.0,7.75,-13.15,-12.03,0,*7C
1500753895.97,39092,23.63,74474.3,7.75,-13.15,-12.03,0,*7F
1500753897.22,39093,23.63,74478.8,7.75,-13.01,-11.93,0,*71
1500753898.44,39094,23.63,74474.3,7.75,-13.15,-12.07,0,*7D
1500753899.69,39095,23.63,74476.0,7.73,-13.07,-11.93,0,*77
1500753900.94,39096,23.63,74474.5,7.73,-12.97,-11.93,0,*7C
1500753902.16,39097,23.63,74478.0,7.75,-12.93,-11.89,0,*74
1500753903.41,39098,23.63,74480.0,7.73,-13.11,-12.11,0,*74
1500753904.61,39099,23.63,74478.3,7.75,-13.07,-12.03,0,*77
1500753905.8,39100,23.63,74476.8,7.75,-13.15,-12.03,0,*75
1500753907.03,39101,23.63,74478.3,7.77,-13.07,-12.03,0,*75
1500753908.31,39102,23.63,74474.3,7.77,-13.01,-11.93,0,*7A
1500753909.56,39103,23.63,74476.5,7.77,-13.01,-12.03,0,*71
1500753910.84,39104,23.63,74474.0,7.77,-12.79,-11.77,0,*78
1500753912.12,39105,23.63,74476.8,7.77,-13.01,-11.93,0,*7D
1500753913.4,39106,23.63,74476.8,7.77,-13.01,-11.93,0,*7E
1500753914.68,39107,23.63,74476.8,7.77,-13.01,-11.93,0,*7F
1500753915.94,39108,23.63,74478.8,7.77,-12.93,-11.93,0,*7A
1500753917.19,39109,23.63,74474.3,7.77,-12.93,-12.07,0,*75
1500753918.44,39110,23.63,74478.3,7.77,-13.07,-12.15,0,*72
1500753919.68,39111,23.63,74482.0,7.77,-13.15,-12.15,0,*70
1500753920.88,39112,23.63,74478.3,7.75,-13.15,-12.21,0,*76
1500753922.08,39113,23.63,74478.8,7.75,-13.07,-12.03,0,*74
1500753923.27,39114,23.63,74476.5,7.75,-13.07,-12.03,0,*73
1500753924.56,39115,23.63,74476.0,7.77,-13.01,-11.93,0,*7C
1500753925.78,39116,23.63,74476.0,7.77,-13.07,-12.03,0,*73
1500753927.04,39117,23.63,74470.8,7.77,-13.01,-12.03,0,*74
1500753928.29,39118,23.63,74472.5,7.77,-12.93,-11.93,0,*7B
1500753929.52,39119,23.63,74472.0,7.77,-12.93,-12.03,0,*70
1500753930.75,39120,23.63,74476.5,7.79,-13.01,-12.03,0,*7E
1500753932.0,39121,23.63,74480.0,7.77,-13.07,-12.07,0,*73
1500753933.28,39122,23.63,74478.8,7.77,-13.01,-12.07,0,*76
1500753934.53,39123,23.63,74474.5,7.77,-13.07,-12.15,0,*72
1500753935.78,39124,23.63,74476.8,7.77,-13.07,-11.93,0,*78
1500753937.03,39125,23.63,74476.3,7.77,-13.07,-12.07,0,*77
1500753938.26,39126,23.63,74480.3,7.77,-12.93,-12.03,0,*7C
1500753939.54,39127,23.63,74476.3,7.77,-13.01,-12.07,0,*73
1500753940.77,39128,23.69,74482.3,7.77,-12.93,-12.03,0,*72
1500753942.0,39129,23.63,74476.5,7.79,-12.93,-11.93,0,*77
1500753943.22,39130,23.63,74478.3,7.79,-12.97,-11.97,0,*7F
1500753944.45,39131,23.63,74476.0,7.77,-12.93,-12.03,0,*7A
1500753945.71,39132,23.63,74480.5,7.77,-13.01,-12.03,0,*73
1500753946.96,39133,23.63,74480.0,7.77,-13.01,-12.03,0,*72
1500753948.19,39134,23.63,74480.0,7.77,-13.07,-12.03,0,*73
1500753949.47,39135,23.63,74478.5,7.77,-13.01,-11.93,0,*7E
1500753950.73,39136,23.63,74482.5,7.77,-13.01,-12.03,0,*77
1500753951.95,39137,23.63,74480.3,7.77,-13.07,-12.21,0,*70
1500753953.2,39138,23.63,74478.5,7.77,-13.07,-12.15,0,*78
1500753954.45,39139,23.63,74478.8,7.77,-13.07,-12.15,0,*79
1500753955.7,39140,23.63,74482.0,7.77,-13.15,-12.15,0,*74
1500753956.92,39141,23.63,74482.5,7.77,-13.15,-12.21,0,*72
1500753958.17,39142,23.63,74480.0,7.77,-13.07,-12.15,0,*75
1500753959.45,39143,23.63,74480.0,7.77,-13.01,-12.07,0,*71
1500753960.73,39144,23.63,74480.5,7.77,-13.01,-12.07,0,*76
1500753961.98,39145,23.63,74476.3,7.77,-13.07,-12.15,0,*72
1500753963.23,39146,23.63,74476.0,7.77,-13.07,-12.15,0,*71
1500753964.48,39147,23.63,74480.8,7.77,-13.07,-12.15,0,*70
1500753965.72,39148,23.63,74480.0,7.75,-13.01,-12.15,0,*7B
1500753966.97,39149,23.63,74478.5,7.75,-13.01,-12.07,0,*79
1500753968.2,39150,23.63,74478.3,7.75,-12.93,-11.89,0,*7E
1500753969.45,39151,23.63,74480.8,7.77,-12.89,-11.93,0,*7D
1500753970.71,39152,23.63,74480.8,7.77,-12.93,-11.89,0,*7E
1500753971.96,39153,23.63,74480.3,7.77,-12.93,-11.89,0,*7F
1500753973.22,39154,23.63,74482.5,7.77,-12.93,-11.93,0,*73
1500753974.47,39155,23.63,74480.3,7.77,-13.01,-12.03,0,*72
1500753975.75,39156,23.63,74478.8,7.77,-13.01,-12.07,0,*75
1500753977.0,39157,23.63,74480.3,7.77,-13.07,-12.15,0,*71
1500753978.28,39158,23.63,74484.3,7.77,-13.01,-12.07,0,*7B
1500753979.48,39159,23.63,74480.3,7.75,-12.93,-12.03,0,*76
1500753980.7,39160,23.63,74484.5,7.75,-13.01,-12.03,0,*76
1500753981.95,39161,23.63,74482.5,7.75,-13.01,-12.07,0,*73
1500753983.18,39162,23.63,74480.3,7.75,-13.01,-12.03,0,*74
1500753984.43,39163,23.63,74480.3,7.75,-13.01,-12.07,0,*71
1500753985.68,39164,23.63,74482.5,7.75,-13.01,-12.07,0,*76
1500753986.93,39165,23.63,74486.0,7.75,-13.01,-12.07,0,*77
1500753988.17,39166,23.63,74480.8,7.73,-13.07,-12.07,0,*74
1500753989.42,39167,23.63,74480.8,7.75,-13.01,-12.15,0,*76
1500753990.66,39168,23.63,74480.0,7.73,-13.11,-12.07,0,*7D
1500753991.91,39169,23.63,74478.3,7.73,-13.07,-12.11,0,*7C
1500753993.16,39170,23.63,74482.0,7.73,-13.07,-12.11,0,*74
1500753994.38,39171,23.63,74484.8,7.75,-12.89,-11.93,0,*7D
1500753995.6,39172,23.63,74480.8,7.75,-12.93,-11.89,0,*7E
1500753996.87,39173,23.63,74478.5,7.73,-12.83,-11.81,0,*70
1500753998.13,39174,23.63,74482.5,7.73,-12.83,-11.97,0,*70
1500753999.38,39175,23.63,74480.8,7.73,-12.97,-11.97,0,*74
1500754000.62,39176,23.63,74482.5,7.73,-13.07,-11.97,0,*7F
1500754001.87,39177,23.63,74482.0,7.73,-12.97,-11.97,0,*76
1500754003.12,39178,23.63,74480.8,7.73,-12.97,-12.07,0,*73
1500754004.37,39179,23.63,74480.3,7.73,-12.97,-11.93,0,*7C
1500754005.62,39180,23.63,74482.8,7.73,-13.07,-12.07,0,*7C
1500754006.86,39181,23.63,74484.8,7.73,-12.93,-11.85,0,*78
1500754008.13,39182,23.63,74482.3,7.73,-12.79,-11.85,0,*7F
1500754009.38,39183,23.63,74482.0,7.73,-12.97,-11.97,0,*7D
1500754010.63,39184,23.63,74480.5,7.73,-12.97,-11.93,0,*7E
1500754011.88,39185,23.63,74486.8,7.73,-12.93,-11.97,0,*7F
1500754013.14,39186,23.63,74486.5,7.73,-12.83,-11.97,0,*7D
1500754014.39,39187,23.63,74484.8,7.73,-12.93,-11.93,0,*79
1500754015.62,39188,23.63,74480.8,7.75,-12.89,-11.93,0,*7B
1500754016.87,39189,23.63,74480.3,7.73,-12.93,-11.93,0,*77
1500754018.12,39190,23.63,74480.0,7.73,-12.93,-11.93,0,*7F
1500754019.37,39191,23.63,74482.5,7.73,-12.93,-11.93,0,*7E
1500754020.62,39192,23.63,74478.8,7.73,-12.93,-11.93,0,*7D
1500754021.84,39193,23.63,74480.5,7.75,-12.89,-11.93,0,*71
1500754023.1,39194,23.63,74476.8,7.73,-12.93,-11.93,0,*7B
1500754024.36,39195,23.63,74476.0,7.73,-12.83,-11.97,0,*7F
1500754025.56,39196,23.63,74478.8,7.75,-12.89,-12.03,0,*7E
1500754026.8,39197,23.63,74476.3,7.73,-12.97,-11.97,0,*78
1500754028.06,39198,23.63,74476.0,7.73,-12.97,-11.93,0,*73
1500754029.31,39199,23.63,74476.3,7.73,-12.93,-11.93,0,*76
1500754030.53,39200,23.63,74476.0,7.71,-12.93,-11.85,0,*70
1500754031.78,39201,23.63,74480.5,7.71,-12.79,-11.85,0,*75
1500754033.04,39202,23.63,74478.3,7.73,-12.83,-11.81,0,*75
1500754034.31,39203,23.63,74478.3,7.73,-12.79,-11.85,0,*75
1500754035.55,39204,23.63,74482.0,7.71,-12.71,-11.85,0,*78
1500754036.8,39205,23.63,74480.0,7.71,-12.79,-11.81,0,*75
1500754038.05,39206,23.63,74480.5,7.71,-12.71,-11.85,0,*7A
1500754039.29,39207,23.63,74480.0,7.71,-12.79,-11.85,0,*73
1500754040.54,39208,23.63,74482.0,7.71,-12.71,-11.85,0,*74
1500754041.81,39209,23.63,74480.3,7.73,-12.71,-11.85,0,*77
1500754043.06,39210,23.63,74480.8,7.71,-12.71,-11.85,0,*7D
1500754044.3,39211,23.63,74478.5,7.71,-12.83,-11.93,0,*76
1500754045.55,39212,23.63,74480.8,7.67,-12.83,-11.97,0,*76
1500754046.77,39213,23.63,74478.8,7.71,-12.93,-11.97,0,*71
1500754048.02,39214,23.63,74478.3,7.71,-12.83,-11.93,0,*73
1500754049.26,39215,23.63,74480.3,7.71,-12.79,-11.85,0,*70
1500754050.51,39216,23.63,74478.3,7.71,-12.71,-11.81,0,*7F
1500754051.76,39217,23.63,74482.0,7.71,-12.79,-11.93,0,*75
1500754053.0,39218,23.63,74480.3,7.71,-12.79,-11.85,0,*7D
1500754054.24,39219,23.63,74476.0,7.71,-12.65,-11.81,0,*75
1500754055.49,39220,23.63,74480.0,7.71,-12.65,-11.85,0,*7B
1500754056.73,39221,23.63,74476.8,7.71,-12.83,-11.97,0,*71
1500754057.98,39222,23.63,74476.0,7.71,-12.83,-11.97,0,*72
1500754059.2,39223,23.63,74480.3,7.67,-12.89,-11.97,0,*7E
1500754060.44,39224,23.63,74476.5,7.67,-12.83,-11.97,0,*73
1500754061.69,39225,23.63,74476.8,7.71,-12.71,-11.85,0,*7B
1500754062.93,39226,23.63,74476.5,7.71,-12.71,-11.81,0,*7C
1500754064.17,39227,23.63,74478.8,7.71,-12.71,-11.81,0,*7D
1500754065.42,39228,23.63,74478.3,7.71,-12.71,-11.85,0,*76
1500754066.66,39229,23.63,74478.8,7.71,-12.71,-11.81,0,*73
1500754067.91,39230,23.63,74478.5,7.67,-12.75,-11.89,0,*70
1500754069.16,39231,23.63,74478.3,7.67,-12.83,-11.89,0,*78
1500754070.41,39232,23.63,74478.8,7.67,-12.79,-11.97,0,*71
1500754071.66,39233,23.63,74480.3,7.71,-12.79,-11.93,0,*73
1500754072.9,39234,23.63,74476.3,7.67,-12.83,-11.89,0,*7D
1500754074.15,39235,23.63,74478.3,7.67,-12.75,-11.85,0,*79
1500754075.4,39236,23.63,74478.5,7.71,-12.65,-11.85,0,*7C
1500754076.65,39237,23.63,74476.0,7.67,-12.71,-11.89,0,*73
1500754077.89,39238,23.63,74478.3,7.71,-12.57,-11.81,0,*77
1500754079.14,39239,23.63,74478.3,7.67,-12.57,-11.85,0,*75
1500754080.38,39240,23.63,74476.5,7.71,-12.65,-11.85,0,*7D
1500754081.62,39241,23.63,74478.3,7.71,-12.65,-11.81,0,*78
1500754082.87,39242,23.63,74480.3,7.67,-12.71,-11.89,0,*71
1500754084.13,39243,23.63,74478.5,7.67,-12.75,-11.89,0,*74
1500754085.37,39244,23.63,74480.0,7.71,-12.57,-11.85,0,*78
1500754086.62,39245,23.63,74476.8,7.67,-12.61,-11.89,0,*77
1500754087.86,39246,23.63,74478.3,7.67,-12.61,-11.89,0,*74
1500754089.11,39247,23.63,74478.8,7.67,-12.71,-11.89,0,*74
1500754090.36,39248,23.63,74478.0,7.67,-12.61,-11.85,0,*76
1500754091.6,39249,23.63,74476.3,7.67,-12.57,-11.77,0,*7F
1500754092.85,39250,23.63,74478.8,7.67,-12.57,-11.85,0,*7A
1500754094.09,39251,23.63,74478.3,7.67,-12.57,-11.85,0,*7B
1500754095.32,39252,23.63,74478.5,7.67,-12.43,-11.63,0,*75
1500754096.53,39253,23.63,74478.8,7.67,-12.43,-11.73,0,*75
1500754097.75,39254,23.63,74476.8,7.67,-12.39,-11.51,0,*7F
1500754098.97,39255,23.63,74472.0,7.67,-12.43,-11.73,0,*73
1500754100.19,39256,23.63,74474.8,7.67,-12.43,-11.73,0,*70
1500754101.41,39257,23.63,74476.5,7.67,-12.39,-11.73,0,*7C
1500754102.62,39258,23.63,74478.3,7.67,-12.39,-11.73,0,*73